Location: Laterina
(43.5167°N, 11.7167°E)
Time: 05:43:04
(UTC+00:00)

Cosmos 1125 Rocket - Pass Details

Date: 26 June 2021
Orbit: 757 x 780 km, 74.0° (Epoch: 26 July)

Event Time Altitude Azimuth Distance (km) Brightness Sun altitude
Rises 22:29:35 0° 356° (N) 3,249 8.2 -22.3°
Reaches altitude 10° 22:34:16 10° 34° (NE) 2,324 6.6 -22.5°
Maximum altitude 22:35:29 11° 47° (NE) 2,275 6.3 -22.5°
Drops below altitude 10° 22:36:41 10° 60° (ENE) 2,324 6.2 -22.5°
Enters shadow 22:40:58 - 96° (E) 3,148 6.5 -22.7°
